Location: ?????
(33.3125°N, 35.2997°E)
Time: 00:38:28
(UTC+00:00)

Daily predictions for brighter satellites

Satellite Brightness Start Highest point End
(mag) Time Altitude Azimuth Time Altitude Azimuth Time Altitude Azimuth
ATLAS 2AS CENTAUR R/B 3.8 00:44:14 43° SE 00:45:35 46° ESE 00:53:10 10° NE
Cosmos 1844 Rocket 3.9 01:10:52 33° SE 01:10:52 33° SE 01:13:57 10° SSE
Aureole 1 Rocket 4.0 01:17:08 75° NNE 01:17:08 75° NNE 01:22:17 10° NNE
Milstar 3 Cent rocket 4.2 01:18:04 19° SSE 01:18:14 19° SSE 01:21:51 10° ESE
Cosmos 2333 Rocket 2.9 01:24:26 43° N 01:24:26 43° N 01:28:15 10° NNE
Meteor 1-22 Rocket 4.4 01:21:49 10° N 01:27:06 61° E 01:32:18 10° SSE
Centaur D-1AR AC-39 4.1 01:28:20 12° SSE 01:28:20 12° SSE 01:29:12 10° SE
ADEOS 4.3 01:25:01 10° NNE 01:28:30 43° N 01:28:30 43° N
Cosmos 1844 3.7 01:31:21 60° N 01:32:27 81° ENE 01:38:11 10° SSE
MSX 3.8 01:36:07 10° NNE 01:41:52 82° ESE 01:46:26 17° S
Cosmos 2184 Rocket 4.3 01:45:40 10° S 01:51:45 65° E 01:57:55 10° NNE
CZ-2C R/B 2.8 01:48:30 10° NNE 01:53:40 66° E 01:58:44 10° S
Cosmos 2219 Rocket 3.0 01:57:06 34° NW 01:57:06 34° NW 02:01:04 10° N
NOSS 3-4 (A) 3.3 01:53:19 33° SSW 01:56:08 89° SE 02:02:21 10° NNE
NOSS 3-4 (C) 3.3 01:53:18 32° SSW 01:56:14 88° ESE 02:02:27 10° NNE
USA 234 3.4 01:51:34 10° SE 01:58:04 75° NE 02:03:27 16° NW
Cosmos 2237 Rocket 2.1 01:58:00 16° SSW 02:02:37 87° ESE 02:08:20 10° NNE
Cosmos 1758 4.2 02:01:30 10° N 02:05:23 48° E 02:09:17 10° SSE
Cosmos 389 Rocket 2.7 02:08:36 10° S 02:11:59 65° E 02:15:22 10° NNE
Delta 142 4.1 02:11:43 37° SW 02:12:33 41° S 02:16:26 10° ESE
COSMOS 2428 3.7 02:14:19 26° NW 02:14:19 26° NW 02:18:28 10° N
Cosmos 1140 Rocket 3.7 02:09:47 10° S 02:14:57 69° ESE 02:20:06 10° NNE
RESURS DK-1 4.3 02:11:45 10° SSE 02:15:22 30° ESE 02:18:59 10° NE
IDEFIX/ARIANE 42P 3.6 02:11:46 10° NNW 02:15:10 27° NW 02:15:10 27° NW
Cosmos 1980 3.6 02:15:05 18° SW 02:19:18 61° WNW 02:24:55 10° NNE
Cosmos 292 Rocket 4.1 02:16:16 10° N 02:21:02 66° ENE 02:25:48 10° SSE
GPS 2-05 Rocket1 3.1 02:21:52 38° S 02:21:52 38° S 02:24:05 10° SE
Cosmos 614 Rocket 3.9 02:17:10 10° SSW 02:22:20 64° WNW 02:27:32 10° N
PAYLOAD A 4.1 02:17:50 10° N 02:22:29 48° WNW 02:27:18 10° SSW
Cosmos 1992 Rocket 4.3 02:20:41 18° NW 02:24:03 41° W 02:28:53 10° S
ATLAS 3B R/B 4.0 02:18:01 10° NNW 02:24:14 38° NE 02:30:35 10° ESE
CZ-4B R/B 3.8 02:21:09 10° N 02:25:06 67° WNW 02:29:15 10° SSW
Cosmos 2074 Rocket 4.0 02:20:02 10° SSW 02:26:11 61° W 02:32:22 10° N
Meteor 1-31 Rocket 2.7 02:24:03 10° N 02:27:47 57° WNW 02:31:30 10° SSW
NOSS 0 Rocket 4.2 02:24:53 19° SW 02:28:55 45° WNW 02:34:49 10° N
H-2A R/B 3.6 02:25:36 10° NNW 02:28:24 25° NW 02:28:24 25° NW
Meteor PRIRODA 3.6 02:27:15 10° NNE 02:31:00 89° W 02:34:42 10° SSW
Cosmos 1707 2.7 02:29:32 10° SSW 02:33:22 59° W 02:37:14 10° N
Cosmos 1470 2.6 02:32:16 10° NNW 02:36:08 63° W 02:39:57 10° S
ATLAS 2AS CENTAUR R/B 3.6 02:31:46 20° WSW 02:36:41 39° NW 02:44:07 10° NNE
CENTAUR R/B 3.8 02:30:05 10° NNW 02:38:14 59° ENE 02:46:48 10° SE
IUS-9 SRM-1 3.3 02:37:13 17° SSW 02:38:28 25° SSE 02:42:59 10° ESE
Milstar 3 3.8 02:35:40 10° SW 02:42:00 39° SSE 02:48:40 10° E
Okean O Rocket 3.0 02:38:31 10° NNE 02:42:41 42° E 02:46:49 10° S
Cosmos 1484 Rocket 2.7 02:41:21 10° NNE 02:45:09 89° E 02:49:00 10° SSW
USA 238 DEB 4.0 02:39:57 10° NW 02:47:03 55° WSW 02:54:16 10° S
USA 238 4.0 02:40:04 10° NW 02:47:09 56° WSW 02:54:22 10° S
Cosmos 2228 3.4 02:44:41 10° N 02:48:54 66° E 02:53:06 10° SSE
Cosmos 1844 Rocket 4.3 02:52:41 13° WSW 02:52:41 13° WSW 02:54:11 10° SW
Cosmos 676 Rocket 4.0 02:48:57 10° SSW 02:54:11 63° WNW 02:59:25 10° N
SL-16 R/B 2.3 02:48:36 10° SSW 02:54:14 86° ESE 02:59:56 10° NNE
Cosmos 2058 Rocket 4.4 02:50:10 10° N 02:54:23 44° E 02:58:37 10° SSE
Cosmos 489 Rocket 4.5 02:51:06 10° NNW 02:57:15 64° WSW 03:03:25 10° S
Meteor 1-16 Rocket 4.4 02:53:45 10° N 02:59:05 74° E 03:04:27 10° SSE
Cosmos 921 Rocket 3.6 02:55:40 10° NW 02:59:28 32° W 03:03:12 10° SSW
SeaSat 1 3.4 03:00:21 10° NE 03:05:10 53° ESE 03:09:58 10° S
SKYMED 2 3.5 03:02:28 10° S 03:06:48 83° W 03:11:09 10° NNW
Cosmos 1674 3.0 03:04:29 10° S 03:08:09 70° E 03:11:51 10° NNE
Meteor 2-5 Rocket 4.1 03:02:43 10° S 03:08:24 75° E 03:14:15 10° NNE
FENGYUN 3A 3.9 03:04:18 10° NNE 03:09:45 81° ESE 03:15:11 10° S
Cosmos 1726 2.6 03:07:47 10° N 03:11:26 64° E 03:15:04 10° SSE
Cosmos 2278 Rocket 2.5 03:06:26 10° NNW 03:11:51 47° WSW 03:17:13 10° S
NOSS 3-2 (A) 4.5 03:05:56 10° NW 03:13:26 46° WSW 03:21:27 10° S
CZ-4B R/B 4.4 03:11:45 10° NNW 03:14:12 16° WNW 03:16:34 10° WSW
GP-B 3.3 03:12:19 10° SSW 03:16:35 48° W 03:20:53 10° NNW
Cosmos 1892 Rocket 3.9 03:12:30 10° SSW 03:16:44 43° W 03:20:58 10° N
Meteor 1-4 Rocket 3.9 03:16:47 10° WSW 03:19:21 19° WNW 03:21:54 10° NNW
